sat.trackr.live / text

‹ back to catalog

GSAT-N2 (GSAT-20)

NORAD 62028 · 2024-214A

PAYLOAD ACTIVE UNKNOWN

§ Identity

Operator
Country
IND
Launch date
2024-11-18
Launch site
AFETR
Launch vehicle
Mass (kg)
RCS (m²)

Purposes: comms

External: N2YO · Heavens-Above · Gunter

§ Orbital elements

Epoch: 2026-05-25T04:04:00.403104Z

Period
1,436.08 min
Inclination
0.0350°
Eccentricity
0.0001953
Mean motion
1.00273253 rev/d
Perigee alt
35,777.9 km
Apogee alt
35,794.4 km
Semi-major
42,164.3 km
B*
0.0000e+0
RAAN
249.9629°
Arg perigee
173.5471°
Mean anomaly
308.2057°
Rev number
566

§ Raw data

GSAT-N2 (GSAT-20)1 62028U 24214A   26145.16944911 -.00000022  00000+0  00000+0 0  99972 62028   0.0350 249.9629 0001953 173.5471 308.2057  1.00273253  5660

JSON: /api/v1/satellites/62028 · /tle

For live sub-satellite position, see the globe view (requires WebGL).

§ Visibility from observer

Set your observer location to see the next 7 days of passes ≥ 10°. The values pass through the URL so the page stays shareable.

No JS? Fill the form by hand. The geolocation button needs JavaScript.